Location: Zagreb
(45.8150°N, 15.9819°E)
Time: 14:08:30
(UTC+02:00)

FALCON 9 DEB - Pass Details

Date: 20 September 2020
Orbit: 161 x 185 km, 53.0° (Epoch: 28 September)

Event Time Altitude Azimuth Distance (km) Brightness Sun altitude
Exits shadow 04:54:03 11° 20° (NNE) 837 ? -18.9°
Drops below altitude 10° 04:54:15 10° 25° (NNE) 886 ? -18.9°
Sets 04:56:27 0° 53° (NE) 1,654 ? -18.5°
